Location: Newark
(21.1200°N, 73.4000°E)
Time: 10:36:12
(UTC+00:00)

Vanguard 1 Rocket - Pass Details

Date: 20 January 2021
Orbit: 654 x 4223 km, 34.3° (Epoch: 07 March)

Event Time Altitude Azimuth Distance (km) Brightness Sun altitude
Rises 17:27:16 0° 259° (WSW) 5,591 11.8 -64.2°
Reaches altitude 10° 17:33:22 10° 236° (WSW) 5,308 11.5 -65.6°
Maximum altitude 17:41:01 15° 208° (SSW) 5,683 11.4 -67.4°
Drops below altitude 10° 17:50:42 10° 181° (S) 6,822 11.8 -69.6°
Sets 18:01:41 0° 161° (SSE) 8,347 12.2 -72.2°
